This is the latest recevied weather packets stored in our database for station/object WC4PEM-9. If no packets are shown the sender has not sent any weather packets the latest 10 day(s).
| Time | Temp. | Humidity | Pressure | Rain* | Wind** | Luminosity | Snow |
|---|---|---|---|---|---|---|---|
| 1777686223 | 24.44° C | 72% | 1010.8 hPa | 0 mm | - | - | - |
| 1777686220 | 24.44° C | 73% | 1010.8 hPa | 0 mm | - | - | - |
| 1777685934 | 25° C | 72% | 1010.7 hPa | 0 mm | - | - | - |
| 1777685919 | 24.44° C | 72% | 1010.8 hPa | 0 mm | - | - | - |
| 1777685620 | 25° C | 72% | 1010.7 hPa | 0 mm | - | - | - |
| 1777685492 | 25° C | 71% | 1010.6 hPa | 0 mm | - | - | - |
| 1777685320 | 25° C | 71% | 1010.6 hPa | 0 mm | - | - | - |
| 1777685020 | 25° C | 70% | 1010.6 hPa | 0 mm | - | - | - |
| 1777684719 | 25° C | 69% | 1010.8 hPa | 0 mm | - | - | - |
| 1777684420 | 25.56° C | 68% | 1010.5 hPa | 0 mm | - | - | - |
| 1777684409 | 25.56° C | 67% | 1010.4 hPa | 0 mm | - | - | - |
| 1777684306 | 25.56° C | 66% | 1010.3 hPa | 0 mm | - | - | - |
| 1777684120 | 25.56° C | 67% | 1010.4 hPa | 0 mm | - | - | - |
| 1777683829 | 26.11° C | 66% | 1010.5 hPa | 0 mm | - | - | - |
| 1777683820 | 25.56° C | 66% | 1010.3 hPa | 0 mm | - | - | - |
| 1777683520 | 26.11° C | 66% | 1010.5 hPa | 0 mm | - | - | - |
| 1777683451 | 26.11° C | 65% | 1010.4 hPa | 0 mm | - | - | - |
| 1777683220 | 26.11° C | 65% | 1010.4 hPa | 0 mm | - | - | - |
| 1777683119 | 26.11° C | 65% | 1010.2 hPa | 0 mm | - | - | - |
| 1777682920 | 26.11° C | 65% | 1010.2 hPa | 0 mm | - | - | - |
| 1777682772 | 26.67° C | 64% | 1010 hPa | 0 mm | - | - | - |
| 1777682620 | 26.11° C | 65% | 1010 hPa | 0 mm | - | - | - |
| 1777682352 | 26.67° C | 64% | 1010 hPa | 0 mm | - | - | - |
| 1777682320 | 26.67° C | 64% | 1010 hPa | 0 mm | - | - | - |
| 1777682020 | 26.67° C | 64% | 1010 hPa | 0 mm | - | - | - |
* Rain latest hour (hover to see other rain measurements)
** Current wind speed in m/s (hover to see current wind gust speed)